Date String (YYYY-MM-DD hh:mm:ss) UTC,Instrument flags,absolute air pressure of the measurement (hPa),sample flow rate (lpm),inlet stack bypass flow (lpm),air temperature of the measurement (°C),ambient temperature measured by the external sensor (°C),aerosol sample conditioner tube jacket temperature (°C),OPC LED temperature (°C),internal box temperature (°C),relative humidity of the measurement (%),span deviation,mass concentration of particles derived from Lorenz-Mie calculation of OPC scattering (μg/m³),mass concentration of particles derived from Lorenz-Mie calculation of OPC scattering (μg/m³),mass concentration of particles derived from Lorenz-Mie calculation of OPC scattering (μg/m³)
DateTimeUTC,F1_M11,P_M11,Q1_M11,Q2_M11,T1_M11,T2_M11,T3_M11,T4_M11,T5_M11,U1_M11,ZSPAN_M11,X2_M11,X0_M11,X1_M11
2023-09-24 20:00:00,SystemResetWarning,0832.4,4.99,000.00,028.0,026.3,000.0,036.3,029.6,13.9,0000.0,0003.61,0009.21,0003.14
2023-09-24 20:01:00,SystemResetWarning,0832.4,5.00,000.00,028.0,026.5,000.0,036.3,029.7,13.9,0000.0,0003.61,0009.05,0003.16
2023-09-24 20:02:00,SystemResetWarning,0832.4,5.01,000.00,028.0,026.8,000.0,036.3,029.7,13.9,0000.0,0003.63,0008.84,0003.17
2023-09-24 20:03:00,SystemResetWarning,0832.4,5.01,000.00,028.1,027.0,000.0,036.4,029.8,13.7,0000.0,0003.63,0008.72,0003.18
2023-09-24 20:04:00,SystemResetWarning,0832.4,4.98,000.00,028.1,027.1,000.0,036.4,029.9,13.9,0000.0,0003.62,0009.18,0003.18
2023-09-24 20:05:00,SystemResetWarning,0832.3,5.01,000.00,028.2,027.3,000.0,036.4,029.9,14.0,0000.0,0003.64,0009.57,0003.19
2023-09-24 20:06:00,SystemResetWarning,0832.3,5.01,000.00,028.2,027.2,000.0,036.4,030.0,13.3,0000.0,0003.66,0009.89,0003.18
2023-09-24 20:07:00,SystemResetWarning,0832.3,4.98,000.00,028.2,025.6,000.0,036.4,029.6,13.7,0000.0,0003.66,0009.88,0003.19
2023-09-24 20:08:00,SystemResetWarning,0832.3,5.01,000.00,028.1,024.2,000.0,036.3,029.4,13.7,0000.0,0003.64,0010.04,0003.19
2023-09-24 20:09:00,SystemResetWarning,0832.3,5.02,000.00,028.0,024.2,000.0,036.2,029.3,13.2,0000.0,0003.64,0010.17,0003.20
2023-09-24 20:10:00,SystemResetWarning,0832.3,4.99,000.00,027.9,024.5,000.0,036.3,029.2,13.2,0000.0,0003.65,0010.61,0003.20
2023-09-24 20:11:00,SystemResetWarning,0832.3,4.99,000.00,027.8,024.9,000.0,036.3,029.3,13.2,0000.0,0003.65,0010.29,0003.20
2023-09-24 20:12:00,SystemResetWarning,0832.3,5.01,000.00,027.9,025.3,000.0,036.3,029.4,13.2,0000.0,0003.64,0009.80,0003.20
2023-09-24 20:13:00,SystemResetWarning,0832.4,5.01,000.00,027.9,025.7,000.0,036.3,029.4,12.9,0000.0,0003.61,0010.00,0003.20
2023-09-24 20:14:00,SystemResetWarning,0832.3,5.00,000.00,027.9,026.0,000.0,036.3,029.5,12.8,0000.0,0003.62,0010.15,0003.19
2023-09-24 20:15:00,SystemResetWarning,0832.4,5.00,000.00,027.9,026.3,000.0,036.3,029.6,12.9,0000.0,0003.63,0009.92,0003.18
2023-09-24 20:16:00,SystemResetWarning,0832.4,5.00,000.00,028.0,026.6,000.0,036.3,029.7,13.2,0000.0,0003.64,0009.37,0003.17
2023-09-24 20:17:00,SystemResetWarning,0832.4,4.99,000.00,028.0,026.8,000.0,036.3,029.8,13.5,0000.0,0003.62,0009.13,0003.16
2023-09-24 20:18:00,SystemResetWarning,0832.4,4.99,000.00,028.1,027.0,000.0,036.3,029.8,13.4,0000.0,0003.63,0009.10,0003.16
2023-09-24 20:19:00,SystemResetWarning,0832.4,5.00,000.00,028.1,027.1,000.0,036.4,029.9,13.2,0000.0,0003.66,0009.02,0003.17
2023-09-24 20:20:00,SystemResetWarning,0832.3,5.02,000.00,028.2,027.3,000.0,036.4,030.0,13.2,0000.0,0003.65,0009.08,0003.16
2023-09-24 20:21:00,SystemResetWarning,0832.4,4.99,000.00,028.2,027.4,000.0,036.4,030.0,13.3,0000.0,0003.63,0008.75,0003.16
2023-09-24 20:22:00,SystemResetWarning,0832.4,4.99,000.00,028.3,027.3,000.0,036.5,030.1,13.2,0000.0,0003.60,0009.04,0003.16
2023-09-24 20:23:00,SystemResetWarning,0832.3,5.00,000.00,028.3,025.8,000.0,036.4,029.8,13.2,0000.0,0003.63,0009.70,0003.15
2023-09-24 20:24:00,SystemResetWarning,0832.3,5.01,000.00,028.1,024.3,000.0,036.3,029.5,13.6,0000.0,0003.64,0009.50,0003.15
2023-09-24 20:25:00,SystemResetWarning,0832.3,5.01,000.00,028.0,024.3,000.0,036.3,029.4,13.7,0000.0,0003.62,0009.30,0003.15
2023-09-24 20:26:00,SystemResetWarning,0832.4,5.00,000.00,028.0,024.6,000.0,036.3,029.3,13.7,0000.0,0003.61,0009.25,0003.16
2023-09-24 20:27:00,SystemResetWarning,0832.3,5.00,000.00,027.9,025.0,000.0,036.3,029.4,13.6,0000.0,0003.60,0009.20,0003.16
2023-09-24 20:28:00,SystemResetWarning,0832.3,5.00,000.00,027.9,025.4,000.0,036.3,029.4,14.0,0000.0,0003.59,0009.12,0003.16
2023-09-24 20:29:00,SystemResetWarning,0832.4,5.00,000.00,027.9,025.8,000.0,036.3,029.5,13.7,0000.0,0003.61,0008.98,0003.17
2023-09-24 20:30:00,SystemResetWarning,0832.4,5.00,000.00,028.0,026.1,000.0,036.3,029.6,13.1,0000.0,0003.60,0008.19,0003.17
2023-09-24 20:31:00,SystemResetWarning,0832.3,5.00,000.00,028.0,026.4,000.0,036.3,029.7,13.1,0000.0,0003.60,0008.47,0003.17
2023-09-24 20:32:00,SystemResetWarning,0832.3,5.00,000.00,028.1,026.6,000.0,036.4,029.7,13.2,0000.0,0003.60,0008.16,0003.16
2023-09-24 20:33:00,SystemResetWarning,0832.4,4.99,000.00,028.1,026.9,000.0,036.4,029.8,13.4,0000.0,0003.62,0008.92,0003.15
2023-09-24 20:34:00,SystemResetWarning,0832.4,4.99,000.00,028.2,027.1,000.0,036.4,029.9,12.9,0000.0,0003.62,0007.99,0003.16
2023-09-24 20:35:00,SystemResetWarning,0832.4,5.00,000.00,028.2,027.2,000.0,036.4,030.0,12.9,0000.0,0003.62,0008.48,0003.17
2023-09-24 20:36:00,SystemResetWarning,0832.4,4.99,000.00,028.3,027.3,000.0,036.4,030.0,12.9,0000.0,0003.63,0008.58,0003.17
2023-09-24 20:37:00,SystemResetWarning,0832.4,5.00,000.00,028.3,026.4,000.0,036.4,029.8,12.6,0000.0,0003.61,0008.72,0003.16
2023-09-24 20:38:00,SystemResetWarning,0832.3,5.00,000.00,028.1,024.6,000.0,036.3,029.3,12.9,0000.0,0003.59,0008.68,0003.16
2023-09-24 20:39:00,SystemResetWarning,0832.4,5.00,000.00,028.0,024.1,000.0,036.3,029.3,12.8,0000.0,0003.58,0008.67,0003.15
2023-09-24 20:40:00,SystemResetWarning,0832.3,5.01,000.00,027.9,024.4,000.0,036.3,029.2,12.9,0000.0,0003.58,0008.68,0003.15
2023-09-24 20:41:00,SystemResetWarning,0832.4,5.00,000.00,027.9,024.7,000.0,036.3,029.2,13.1,0000.0,0003.57,0008.67,0003.13
2023-09-24 20:42:00,SystemResetWarning,0832.4,5.00,000.00,027.9,025.2,000.0,036.3,029.3,12.9,0002.2,0003.57,0008.93,0003.12
2023-09-24 20:43:00,SystemResetWarning,0832.4,5.00,000.00,027.9,025.6,000.0,036.3,029.4,13.0,0001.8,0003.61,0009.83,0003.13
2023-09-24 20:44:00,SystemResetWarning,0832.3,5.00,000.00,027.9,025.9,000.0,036.3,029.5,12.8,0000.0,0003.61,0009.88,0003.13
2023-09-24 20:45:00,SystemResetWarning,0832.4,5.00,000.00,027.9,026.2,000.0,036.3,029.6,12.6,0000.0,0003.62,0010.93,0003.13
2023-09-24 20:46:00,SystemResetWarning,0832.4,5.00,000.00,028.0,026.5,000.0,036.3,029.7,12.7,0000.0,0003.60,0010.74,0003.12
2023-09-24 20:47:00,SystemResetWarning,0832.3,5.00,000.00,028.0,026.8,000.0,036.3,029.7,12.8,0000.0,0003.61,0011.06,0003.10
2023-09-24 20:48:00,SystemResetWarning,0832.3,5.01,000.00,028.1,027.0,000.0,036.4,029.8,12.8,0000.0,0003.61,0010.86,0003.10
2023-09-24 20:49:00,SystemResetWarning,0832.3,5.01,000.00,028.1,027.1,000.0,036.4,029.9,12.6,0000.0,0003.61,0010.86,0003.10
2023-09-24 20:50:00,SystemResetWarning,0832.3,4.99,000.00,028.2,027.3,000.0,036.4,030.0,12.8,0000.0,0003.66,0010.97,0003.10
2023-09-24 20:51:00,SystemResetWarning,0832.3,4.99,000.00,028.3,027.4,000.0,036.4,030.0,12.5,0000.0,0003.67,0011.03,0003.10
2023-09-24 20:52:00,SystemResetWarning,0832.3,4.99,000.00,028.3,027.2,000.0,036.5,030.0,12.6,0000.0,0003.66,0011.10,0003.11
2023-09-24 20:53:00,SystemResetWarning,0832.3,5.00,000.00,028.2,025.5,000.0,036.4,029.6,12.8,0000.0,0003.67,0010.76,0003.11
2023-09-24 20:54:00,SystemResetWarning,0832.3,5.00,000.00,028.1,024.2,000.0,036.3,029.4,12.5,0000.0,0003.65,0009.79,0003.11
2023-09-24 20:55:00,SystemResetWarning,0832.3,5.01,000.00,028.0,024.3,000.0,036.3,029.4,12.6,0000.0,0003.66,0009.06,0003.10
2023-09-24 20:56:00,SystemResetWarning,0832.3,5.01,000.00,027.9,024.6,000.0,036.3,029.3,12.8,0000.0,0003.64,0007.96,0003.10
2023-09-24 20:57:00,SystemResetWarning,0832.3,5.00,000.00,027.9,025.0,000.0,036.3,029.4,12.6,0000.0,0003.66,0007.79,0003.11
2023-09-24 20:58:00,SystemResetWarning,0832.3,5.01,000.00,027.9,025.4,000.0,036.3,029.4,12.6,0000.0,0003.65,0007.83,0003.11
2023-09-24 20:59:00,SystemResetWarning,0832.3,4.99,000.00,027.9,025.8,000.0,036.3,029.5,12.7,0000.0,0003.63,0008.11,0003.10
